EW3722 Weather Reports


time (UTC)temp
C
wind
direction
speed
KPH
gust
KPH
rain 1hr
cm
rain 24hr
cm
rain mn
cm
humidity
%
barometer
mb
20260505041517 11 0.0 0.0 0.00 0.00 0.00 86 1015.2
20260505040537 11 0.0 0.0 0.00 0.00 0.00 85 1015.3
20260505035517 11 0.0 0.0 0.00 0.00 0.00 85 1015.3
20260505034517 11 0.0 0.0 0.00 0.00 0.00 84 1015.3
20260505033517 11 0.0 0.0 0.00 0.00 0.00 84 1015.3
20260505032517 11 0.0 0.0 0.00 0.00 0.00 83 1015.3
20260505031517 11 0.0 0.0 0.00 0.00 0.00 83 1015.4
20260505030517 11 0.0 0.0 0.00 0.00 0.00 82 1015.3
20260505025517 11 0.0 0.0 0.00 0.00 0.00 81 1015.4
20260505024517 11 0.0 0.0 0.00 0.00 0.00 80 1015.4
20260505023517 11 0.0 0.0 0.00 0.00 0.00 80 1015.7
20260505022517 11 0.0 0.0 0.00 0.00 0.00 80 1015.9
20260505021517 11 0.0 0.0 0.00 0.00 0.00 80 1015.9
20260505020517 11 0.0 0.0 0.00 0.00 0.00 81 1015.8
20260505015517 11 0.0 0.0 0.00 0.00 0.00 82 1015.9
20260505014517 10 0.0 0.0 0.00 0.00 0.00 82 1015.9
20260505013517 10 0.0 0.0 0.00 0.00 0.00 82 1015.9
20260505011537 10 0.0 0.0 0.00 0.00 0.00 82 1016.1
20260505010517 10 0.0 0.0 0.00 0.00 0.00 81 1016.4
20260505005517 10 0.0 0.0 0.00 0.00 0.00 81 1016.4
20260505004517 10 0.0 0.0 0.00 0.00 0.00 81 1016.4
20260505003517 10 0.0 0.0 0.00 0.00 0.00 81 1016.6
20260505002537 10 0.0 0.0 0.00 0.00 0.00 81 1016.8
20260505001517 10 0.0 0.0 0.00 0.00 0.00 81 1016.9
20260505000537 10 0.0 0.0 0.00 0.00 0.00 81 1017.2
20260504235537 10 0.0 0.0 0.00 0.00 0.00 80 1017.3
20260504234517 10 0.0 0.0 0.00 0.00 0.00 80 1017.2
20260504233517 10 0.0 0.0 0.00 0.00 0.00 79 1017.3
20260504231516 10 0.0 0.0 0.00 0.00 0.00 80 1017.5
20260504230517 10 0.0 0.0 0.00 0.00 0.00 80 1018.0
20260504225517 10 0.0 0.0 0.00 0.00 0.00 79 1017.8
20260504224516 10 0.0 0.0 0.00 0.00 0.00 77 1017.7
20260504223517 11 0.0 0.0 0.00 0.00 0.00 76 1017.8
20260504222517 11 0.0 0.0 0.00 0.00 0.00 75 1017.8
20260504221517 11 0.0 0.0 0.00 0.00 0.00 74 1017.8
20260504220517 11 0.0 0.0 0.00 0.00 0.00 74 1018.0
20260504215537 11 0.0 0.0 0.00 0.00 0.00 72 1017.9
20260504214518 12 0.0 0.0 0.00 0.00 0.00 71 1018.0
20260504213517 12 0.0 0.0 0.00 0.00 0.00 70 1018.0
20260504212537 12 0.0 0.0 0.00 0.00 0.00 71 1018.0
20260504211518 12 0.0 0.0 0.00 0.00 0.00 72 1018.0
20260504210517 12 0.0 0.0 0.00 0.00 0.00 71 1018.4
20260504205517 12 0.0 0.0 0.00 0.00 0.00 69 1018.3
20260504204537 12 0.0 0.0 0.00 0.00 0.00 67 1018.3
20260504203517 12 0.0 0.0 0.00 0.00 0.00 66 1018.2
20260504202517 12 0.0 0.0 0.00 0.00 0.00 65 1018.3
20260504201517 13 0.0 0.0 0.00 0.00 0.00 63 1018.2
20260504200517 13 0.0 0.0 0.00 0.00 0.00 62 1018.3
20260504195517 13 0.0 0.0 0.00 0.00 0.00 62 1018.1
20260504194517 13 0.0 0.0 0.00 0.00 0.00 62 1018.0
20260504193517 14 0.0 0.0 0.00 0.00 0.00 61 1017.8
20260504192517 14 0.0 0.0 0.00 0.00 0.00 61 1017.7
20260504191517 15 0.0 0.0 0.00 0.00 0.00 60 1017.7
20260504190517 15 0.0 0.0 0.00 0.00 0.00 58 1017.9
20260504185537 15 0.0 0.0 0.00 0.00 0.00 58 1017.6
20260504184517 15 0.0 0.0 0.00 0.00 0.00 57 1017.5
20260504183557 15 0.0 0.0 0.00 0.00 0.00 57 1017.2
20260504182537 16 0.0 0.0 0.00 0.00 0.00 59 1017.1
20260504181537 16 0.0 0.0 0.00 0.00 0.00 58 1017.1
20260504180537 16 0.0 0.0 0.00 0.00 0.00 57 1017.3
20260504175537 17 0.0 0.0 0.00 0.00 0.00 56 1017.3
20260504174517 17 0.0 0.0 0.00 0.00 0.00 54 1017.1
20260504173517 17 0.0 0.0 0.00 0.00 0.00 53 1016.9
20260504172537 17 0.0 0.0 0.00 0.00 0.00 53 1017.1
20260504171517 17 0.0 0.0 0.00 0.00 0.00 53 1017.1
20260504170517 18 0.0 3.2 0.00 0.00 0.00 51 1017.1
20260504150517 20 0.0 0.0 0.00 0.00 0.00 43 1017.5
20260504140537 21 0.0 1.6 0.00 0.00 0.00 48 1017.6
20260504130516 22 0.0 8.0 0.00 0.00 0.00 44 1018.1
20260504110518 21 0.0 3.2 0.00 0.00 0.00 51 1019.0
20260504100518 20 0.0 1.6 0.00 0.00 0.00 51 1019.2
20260504081517 18 0.0 0.0 0.00 0.00 0.00 60 1019.4
20260504080518 17 0.0 4.8 0.00 0.00 0.00 59 1019.3
20260504050517 8 0.0 0.0 0.00 0.00 0.00 88 1018.7